| time (UTC) | temp F | wind direction | speed knots | gust knots | rain 1hr in | rain 24hr in | rain mn in | humidity % | barometer mb |
| 20260904222003 | 75 | 121 | 0.9 | 3.5 | 0.11 | 1.67 | 1.67 | 97 | 1013.9 |
| 20260904221510 | 75 | 103 | 0.9 | 2.6 | 0.10 | 1.66 | 1.66 | 97 | 1013.9 |
| 20260904221003 | 75 | 57 | 0.9 | 2.6 | 0.11 | 1.66 | 1.66 | 97 | 1013.9 |
| 20260904220504 | 75 | 82 | 1.7 | 2.6 | 0.10 | 1.65 | 1.65 | 97 | 1014.1 |
| 20260904220014 | 75 | 57 | 0.0 | 2.6 | 0.10 | 1.64 | 1.64 | 97 | 1014.0 |
| 20260904215508 | 75 | 87 | 0.9 | 2.6 | 0.09 | 1.63 | 1.63 | 97 | 1014.0 |
| 20260904215009 | 75 | 111 | 0.9 | 1.7 | 0.08 | 1.62 | 1.62 | 97 | 1014.1 |
| 20260904214518 | 75 | 111 | 0.9 | 1.7 | 0.08 | 1.61 | 1.61 | 97 | 1014.1 |
| 20260904214011 | 75 | 111 | 0.9 | 1.7 | 0.07 | 1.60 | 1.60 | 97 | 1014.1 |
| 20260904213512 | 75 | 103 | 1.7 | 1.7 | 0.07 | 1.59 | 1.59 | 97 | 1014.1 |
| 20260904213027 | 75 | 107 | 0.9 | 1.7 | 0.07 | 1.58 | 1.58 | 97 | 1014.1 |
| 20260904212513 | 75 | 158 | 0.0 | 1.7 | 0.08 | 1.57 | 1.57 | 97 | 1014.0 |
| 20260904212015 | 75 | 158 | 0.0 | 1.7 | 0.09 | 1.56 | 1.56 | 97 | 1014.0 |
| 20260904211530 | 75 | 140 | 0.9 | 1.7 | 0.12 | 1.56 | 1.56 | 97 | 1014.1 |
| 20260904211003 | 75 | 23 | 0.9 | 2.6 | 0.15 | 1.55 | 1.55 | 97 | 1014.1 |
| 20260904210504 | 75 | 43 | 0.9 | 2.6 | 0.20 | 1.55 | 1.55 | 97 | 1014.2 |
| 20260904210019 | 74 | 9 | 0.9 | 1.7 | 0.24 | 1.54 | 1.54 | 97 | 1014.2 |
| 20260904205506 | 74 | 55 | 0.0 | 0.0 | 0.30 | 1.54 | 1.54 | 97 | 1014.2 |
| 20260904205007 | 74 | 352 | 0.0 | 1.7 | 0.37 | 1.54 | 1.54 | 97 | 1014.1 |
| 20260904204516 | 74 | 352 | 0.0 | 3.5 | 0.43 | 1.53 | 1.53 | 97 | 1014.0 |
| 20260904204008 | 74 | 38 | 0.9 | 4.3 | 0.50 | 1.53 | 1.53 | 96 | 1014.1 |
| 20260904203511 | 74 | 67 | 1.7 | 4.3 | 0.57 | 1.52 | 1.52 | 96 | 1014.1 |
| 20260904203025 | 74 | 85 | 2.6 | 4.3 | 0.65 | 1.51 | 1.51 | 96 | 1014.2 |
| 20260904202510 | 74 | 73 | 0.9 | 2.6 | 0.73 | 1.49 | 1.49 | 97 | 1014.2 |
| 20260904202014 | 74 | 58 | 0.0 | 2.6 | 0.80 | 1.47 | 1.47 | 97 | 1014.1 |
| 20260904201529 | 74 | 58 | 0.0 | 4.3 | 0.89 | 1.44 | 1.44 | 96 | 1014.3 |
| 20260904201014 | 73 | 42 | 1.7 | 4.3 | 0.94 | 1.40 | 1.40 | 96 | 1014.4 |
| 20260904200502 | 73 | 352 | 2.6 | 4.3 | 0.99 | 1.35 | 1.35 | 96 | 1014.5 |
| 20260904200027 | 73 | 5 | 1.7 | 2.6 | 1.04 | 1.30 | 1.30 | 96 | 1014.8 |
| 20260904195505 | 73 | 352 | 0.9 | 3.5 | 1.08 | 1.24 | 1.24 | 96 | 1014.9 |
| 20260904195011 | 73 | 17 | 1.7 | 3.5 | 1.09 | 1.16 | 1.16 | 96 | 1014.7 |
| 20260904194517 | 73 | 70 | 0.9 | 3.5 | 1.08 | 1.10 | 1.10 | 96 | 1014.6 |
| 20260904194010 | 72 | 5 | 0.0 | 7.8 | 1.02 | 1.03 | 1.03 | 96 | 1014.4 |
| 20260904193510 | 72 | 83 | 2.6 | 7.8 | 0.94 | 0.95 | 0.95 | 95 | 1014.6 |
| 20260904193021 | 72 | 82 | 3.5 | 6.1 | 0.85 | 0.86 | 0.86 | 95 | 1014.6 |
| 20260904192514 | 72 | 67 | 0.9 | 7.0 | 0.75 | 0.76 | 0.76 | 95 | 1014.7 |
| 20260904192012 | 73 | 107 | 3.5 | 7.8 | 0.66 | 0.67 | 0.67 | 95 | 1015.1 |
| 20260904191529 | 73 | 73 | 6.1 | 8.7 | 0.54 | 0.55 | 0.55 | 94 | 1015.2 |
| 20260904191017 | 73 | 119 | 3.5 | 9.6 | 0.45 | 0.46 | 0.46 | 94 | 1015.3 |
| 20260904190514 | 74 | 160 | 6.1 | 12.2 | 0.35 | 0.36 | 0.36 | 94 | 1015.2 |
| 20260904190029 | 74 | 173 | 5.2 | 12.2 | 0.24 | 0.25 | 0.25 | 94 | 1015.4 |
| 20260904185505 | 74 | 200 | 6.1 | 17.4 | 0.15 | 0.16 | 0.16 | 93 | 1015.4 |
| 20260904185007 | 75 | 203 | 6.1 | 22.6 | 0.07 | 0.08 | 0.08 | 90 | 1015.2 |
| 20260904184513 | 77 | 192 | 9.6 | 22.6 | 0.01 | 0.02 | 0.02 | 86 | 1015.4 |
| 20260904184007 | 80 | 151 | 6.1 | 15.6 | 0.00 | 0.01 | 0.01 | 83 | 1015.2 |
| 20260904183511 | 83 | 146 | 5.2 | 14.8 | 0.00 | 0.01 | 0.01 | 83 | 1015.3 |
| 20260904183017 | 84 | 195 | 0.0 | 2.6 | 0.00 | 0.01 | 0.01 | 83 | 1015.1 |
| 20260904182513 | 84 | 256 | 0.9 | 4.3 | 0.00 | 0.01 | 0.01 | 81 | 1014.9 |
| 20260904182016 | 84 | 341 | 1.7 | 9.6 | 0.00 | 0.01 | 0.01 | 81 | 1014.5 |
| 20260904181530 | 85 | 327 | 2.6 | 9.6 | 0.00 | 0.01 | 0.01 | 80 | 1014.1 |
| 20260904181020 | 84 | 31 | 3.5 | 9.6 | 0.00 | 0.01 | 0.01 | 83 | 1014.2 |
| 20260904180514 | 84 | 329 | 4.3 | 9.6 | 0.00 | 0.01 | 0.01 | 83 | 1014.2 |
| 20260904180028 | 85 | 28 | 4.3 | 9.6 | 0.00 | 0.01 | 0.01 | 82 | 1014.4 |
| 20260904175514 | 86 | 349 | 5.2 | 8.7 | 0.00 | 0.01 | 0.01 | 80 | 1014.5 |
| 20260904175015 | 86 | 344 | 2.6 | 7.8 | 0.00 | 0.01 | 0.01 | 82 | 1014.6 |
| 20260904174515 | 85 | 13 | 1.7 | 7.8 | 0.01 | 0.01 | 0.01 | 84 | 1014.6 |
| 20260904174006 | 84 | 40 | 2.6 | 7.0 | 0.01 | 0.01 | 0.01 | 84 | 1014.7 |
| 20260904173507 | 84 | 28 | 3.5 | 7.0 | 0.01 | 0.01 | 0.01 | 84 | 1014.9 |
| 20260904173017 | 84 | 319 | 4.3 | 7.8 | 0.01 | 0.01 | 0.01 | 85 | 1014.8 |
| 20260904172510 | 84 | 74 | 3.5 | 9.6 | 0.01 | 0.01 | 0.01 | 84 | 1014.9 |
| 20260904172010 | 84 | 352 | 4.3 | 9.6 | 0.01 | 0.01 | 0.01 | 84 | 1015.1 |
| 20260904171527 | 84 | 360 | 4.3 | 8.7 | 0.01 | 0.01 | 0.01 | 86 | 1015.3 |
| 20260904171011 | 84 | 329 | 2.6 | 5.2 | 0.01 | 0.01 | 0.01 | 85 | 1015.4 |
| 20260904170513 | 84 | 346 | 2.6 | 4.3 | 0.01 | 0.01 | 0.01 | 86 | 1015.4 |
| 20260904170043 | 85 | 334 | 2.6 | 3.5 | 0.01 | 0.01 | 0.01 | 87 | 1015.5 |
| 20260904165516 | 85 | 292 | 1.7 | 3.5 | 0.01 | 0.01 | 0.01 | 85 | 1015.5 |
| 20260904165014 | 85 | 271 | 0.0 | 4.3 | 0.01 | 0.01 | 0.01 | 84 | 1015.6 |
| 20260904164533 | 85 | 169 | 1.7 | 5.2 | 0.00 | 0.00 | 0.00 | 82 | 1015.7 |
| 20260904164015 | 85 | 159 | 2.6 | 5.2 | 0.00 | 0.00 | 0.00 | 80 | 1015.7 |
| 20260904163506 | 86 | 115 | 0.0 | 0.0 | 0.00 | 0.00 | 0.00 | 80 | 1015.8 |
| 20260904163017 | 86 | 267 | 0.0 | 3.5 | 0.00 | 0.00 | 0.00 | 80 | 1015.7 |
| 20260904162508 | 86 | 311 | 0.0 | 3.5 | 0.00 | 0.00 | 0.00 | 82 | 1015.7 |
| 20260904162010 | 86 | 53 | 0.9 | 4.3 | 0.00 | 0.00 | 0.00 | 82 | 1015.8 |
| 20260904161523 | 86 | 36 | 2.6 | 4.3 | 0.00 | 0.00 | 0.00 | 80 | 1015.8 |
| 20260904161015 | 86 | 33 | 1.7 | 3.5 | 0.00 | 0.00 | 0.00 | 80 | 1015.8 |
| 20260904160513 | 86 | 76 | 1.7 | 5.2 | 0.00 | 0.00 | 0.00 | 79 | 1015.8 |
| 20260904160028 | 86 | 109 | 2.6 | 4.3 | 0.00 | 0.00 | 0.00 | 77 | 1015.7 |
| 20260904155515 | 86 | 88 | 1.7 | 4.3 | 0.00 | 0.00 | 0.00 | 81 | 1015.7 |
| 20260904155016 | 86 | 91 | 1.7 | 4.3 | 0.00 | 0.00 | 0.00 | 78 | 1015.7 |
| 20260904154531 | 86 | 98 | 1.7 | 2.6 | 0.00 | 0.00 | 0.00 | 81 | 1015.6 |
| 20260904154017 | 85 | 88 | 0.0 | 0.0 | 0.00 | 0.00 | 0.00 | 78 | 1015.6 |
| 20260904153516 | 85 | 42 | 0.0 | 0.0 | 0.00 | 0.00 | 0.00 | 80 | 1015.6 |
| 20260904153032 | 85 | 42 | 0.0 | 2.6 | 0.00 | 0.00 | 0.00 | 79 | 1015.5 |
| 20260904152507 | 85 | 42 | 0.9 | 2.6 | 0.00 | 0.00 | 0.00 | 80 | 1015.5 |
| 20260904152006 | 85 | 113 | 0.9 | 5.2 | 0.00 | 0.00 | 0.00 | 81 | 1015.5 |
| 20260904151520 | 85 | 130 | 2.6 | 5.2 | 0.00 | 0.00 | 0.00 | 80 | 1015.5 |
| 20260904151012 | 85 | 27 | 0.9 | 2.6 | 0.00 | 0.00 | 0.00 | 83 | 1015.5 |
| 20260904150512 | 84 | 118 | 1.7 | 2.6 | 0.00 | 0.00 | 0.00 | 83 | 1015.4 |
| 20260904150033 | 84 | 142 | 2.6 | 3.5 | 0.00 | 0.00 | 0.00 | 83 | 1015.4 |
| 20260904145514 | 84 | 102 | 0.0 | 3.5 | 0.00 | 0.00 | 0.00 | 84 | 1015.4 |
| 20260904145017 | 84 | 92 | 1.7 | 2.6 | 0.00 | 0.00 | 0.00 | 86 | 1015.4 |
| 20260904144507 | 84 | 137 | 0.9 | 3.5 | 0.00 | 0.00 | 0.00 | 85 | 1015.3 |
| 20260904144004 | 83 | 119 | 0.9 | 4.3 | 0.00 | 0.00 | 0.00 | 86 | 1015.3 |
| 20260904143505 | 83 | 129 | 1.7 | 4.3 | 0.00 | 0.00 | 0.00 | 85 | 1015.2 |
| 20260904143011 | 83 | 97 | 1.7 | 3.5 | 0.00 | 0.00 | 0.00 | 86 | 1015.3 |
| 20260904142506 | 83 | 76 | 0.9 | 4.3 | 0.00 | 0.00 | 0.00 | 87 | 1015.2 |
| 20260904142009 | 83 | 129 | 1.7 | 7.0 | 0.00 | 0.00 | 0.00 | 85 | 1015.3 |
| 20260904141517 | 83 | 101 | 2.6 | 7.0 | 0.00 | 0.00 | 0.00 | 86 | 1015.3 |
| 20260904141009 | 83 | 67 | 1.7 | 4.3 | 0.00 | 0.00 | 0.00 | 86 | 1015.3 |
| 20260904140510 | 82 | 87 | 0.0 | 3.5 | 0.00 | 0.00 | 0.00 | 87 | 1015.3 |
| 20260904140025 | 82 | 105 | 0.9 | 3.5 | 0.00 | 0.00 | 0.00 | 87 | 1015.3 |
| 20260904135513 | 82 | 111 | 1.7 | 3.5 | 0.00 | 0.00 | 0.00 | 87 | 1015.3 |
| 20260904135014 | 82 | 114 | 1.7 | 3.5 | 0.00 | 0.00 | 0.00 | 88 | 1015.3 |
| 20260904134531 | 81 | 98 | 0.9 | 4.3 | 0.00 | 0.00 | 0.00 | 89 | 1015.3 |
| 20260904134016 | 81 | 105 | 1.7 | 5.2 | 0.00 | 0.00 | 0.00 | 90 | 1015.2 |
| 20260904133503 | 80 | 127 | 3.5 | 5.2 | 0.00 | 0.00 | 0.00 | 90 | 1015.3 |
| 20260904133009 | 80 | 78 | 1.7 | 4.3 | 0.00 | 0.00 | 0.00 | 91 | 1015.3 |
| 20260904132505 | 80 | 107 | 2.6 | 5.2 | 0.00 | 0.00 | 0.00 | 90 | 1015.4 |
| 20260904132002 | 80 | 103 | 1.7 | 5.2 | 0.00 | 0.00 | 0.00 | 90 | 1015.3 |
| 20260904131518 | 80 | 129 | 1.7 | 5.2 | 0.00 | 0.00 | 0.00 | 91 | 1015.4 |
| 20260904131009 | 80 | 132 | 2.6 | 5.2 | 0.00 | 0.00 | 0.00 | 90 | 1015.4 |
| 20260904130509 | 80 | 86 | 1.7 | 5.2 | 0.00 | 0.00 | 0.00 | 91 | 1015.4 |
| 20260904130020 | 79 | 101 | 1.7 | 3.5 | 0.00 | 0.00 | 0.00 | 91 | 1015.3 |
| 20260904125513 | 79 | 94 | 2.6 | 4.3 | 0.00 | 0.00 | 0.00 | 91 | 1015.2 |
| 20260904125016 | 79 | 88 | 1.7 | 4.3 | 0.00 | 0.00 | 0.00 | 91 | 1015.2 |
| 20260904124528 | 79 | 69 | 2.6 | 4.3 | 0.00 | 0.00 | 0.00 | 91 | 1015.2 |
| 20260904124013 | 79 | 54 | 2.6 | 3.5 | 0.00 | 0.00 | 0.00 | 92 | 1015.2 |
| 20260904123519 | 78 | 82 | 2.6 | 3.5 | 0.00 | 0.00 | 0.00 | 93 | 1015.2 |
| 20260904123008 | 78 | 83 | 1.7 | 3.5 | 0.00 | 0.00 | 0.00 | 93 | 1015.2 |
| 20260904122505 | 78 | 69 | 0.0 | 0.0 | 0.00 | 0.00 | 0.00 | 93 | 1015.1 |
| 20260904122005 | 77 | 65 | 0.0 | 1.7 | 0.00 | 0.00 | 0.00 | 94 | 1015.1 |
| 20260904121514 | 77 | 90 | 0.0 | 2.6 | 0.00 | 0.00 | 0.00 | 94 | 1015.0 |
| 20260904121008 | 77 | 90 | 0.9 | 2.6 | 0.00 | 0.00 | 0.00 | 94 | 1015.0 |
| 20260904120510 | 77 | 77 | 0.9 | 2.6 | 0.00 | 0.00 | 0.00 | 94 | 1014.8 |
| 20260904120027 | 76 | 71 | 0.0 | 1.7 | 0.00 | 0.00 | 0.00 | 95 | 1014.9 |
| 20260904115510 | 76 | 146 | 0.0 | 1.7 | 0.00 | 0.00 | 0.00 | 95 | 1014.9 |
| 20260904115013 | 76 | 69 | 0.0 | 1.7 | 0.00 | 0.00 | 0.00 | 96 | 1014.8 |
| 20260904114528 | 76 | 37 | 0.0 | 0.0 | 0.00 | 0.00 | 0.00 | 96 | 1014.6 |
| 20260904114015 | 76 | 59 | 0.0 | 0.0 | 0.00 | 0.00 | 0.00 | 95 | 1014.5 |
| 20260904113514 | 76 | 93 | 0.0 | 0.0 | 0.00 | 0.00 | 0.00 | 95 | 1014.5 |
| 20260904113032 | 76 | 93 | 0.0 | 0.0 | 0.00 | 0.00 | 0.00 | 95 | 1014.4 |
| 20260904112517 | 76 | 84 | 0.0 | 0.0 | 0.00 | 0.00 | 0.00 | 95 | 1014.4 |
| 20260904112004 | 76 | 84 | 0.0 | 0.0 | 0.00 | 0.00 | 0.00 | 95 | 1014.4 |
| 20260904111514 | 76 | 65 | 0.0 | 0.9 | 0.00 | 0.00 | 0.00 | 95 | 1014.2 |
| 20260904111006 | 76 | 67 | 0.0 | 2.6 | 0.00 | 0.00 | 0.00 | 95 | 1014.3 |
| 20260904110509 | 76 | 80 | 0.9 | 2.6 | 0.00 | 0.00 | 0.00 | 95 | 1014.3 |
| 20260904110021 | 76 | 34 | 0.0 | 2.6 | 0.00 | 0.00 | 0.00 | 95 | 1014.3 |
| 20260904105510 | 76 | 46 | 0.9 | 3.5 | 0.00 | 0.00 | 0.00 | 95 | 1014.3 |
| 20260904105013 | 76 | 39 | 0.9 | 3.5 | 0.00 | 0.00 | 0.00 | 95 | 1014.3 |
| 20260904104527 | 76 | 45 | 0.0 | 3.5 | 0.00 | 0.00 | 0.00 | 95 | 1014.3 |
| 20260904104016 | 76 | 66 | 0.0 | 0.0 | 0.00 | 0.00 | 0.00 | 95 | 1014.4 |
| 20260904103514 | 76 | 74 | 0.0 | 0.0 | 0.00 | 0.00 | 0.00 | 95 | 1014.4 |
| 20260904103030 | 76 | 59 | 0.0 | 0.9 | 0.00 | 0.00 | 0.00 | 95 | 1014.3 |
| 20260904102517 | 76 | 28 | 0.0 | 2.6 | 0.00 | 0.00 | 0.00 | 95 | 1014.3 |
| 20260904102018 | 76 | 55 | 0.9 | 3.5 | 0.00 | 0.00 | 0.00 | 95 | 1014.3 |
| 20260904101533 | 76 | 33 | 0.9 | 3.5 | 0.00 | 0.00 | 0.00 | 95 | 1014.2 |
| 20260904101007 | 76 | 38 | 0.0 | 1.7 | 0.00 | 0.00 | 0.00 | 96 | 1014.2 |
| 20260904100510 | 76 | 9 | 0.0 | 0.0 | 0.00 | 0.00 | 0.00 | 96 | 1014.2 |
| 20260904100026 | 76 | 22 | 0.0 | 1.7 | 0.00 | 0.00 | 0.00 | 96 | 1014.2 |
| 20260904095512 | 76 | 43 | 0.0 | 1.7 | 0.00 | 0.00 | 0.00 | 96 | 1014.2 |
| 20260904095009 | 76 | 28 | 0.0 | 1.7 | 0.00 | 0.00 | 0.00 | 96 | 1014.2 |
| 20260904094526 | 77 | 28 | 0.9 | 1.7 | 0.00 | 0.00 | 0.00 | 96 | 1014.2 |
| 20260904094010 | 77 | 11 | 0.0 | 1.7 | 0.00 | 0.00 | 0.00 | 96 | 1014.2 |
| 20260904093514 | 77 | 11 | 0.0 | 0.0 | 0.00 | 0.00 | 0.00 | 96 | 1014.2 |
| 20260904093051 | 77 | 11 | 0.0 | 0.0 | 0.00 | 0.00 | 0.00 | 96 | 1014.1 |
| 20260904092516 | 77 | 58 | 0.0 | 0.0 | 0.00 | 0.00 | 0.00 | 96 | 1014.1 |
| 20260904092015 | 77 | 58 | 0.0 | 0.0 | 0.00 | 0.00 | 0.00 | 96 | 1014.1 |
| 20260904091534 | 77 | 58 | 0.0 | 1.7 | 0.00 | 0.00 | 0.00 | 96 | 1014.1 |
| 20260904091015 | 77 | 59 | 0.0 | 1.7 | 0.00 | 0.00 | 0.00 | 96 | 1014.1 |
| 20260904090516 | 77 | 348 | 0.0 | 0.0 | 0.00 | 0.00 | 0.00 | 96 | 1014.1 |
| 20260904090014 | 76 | 348 | 0.0 | 0.0 | 0.00 | 0.00 | 0.00 | 96 | 1014.0 |
| 20260904085506 | 76 | 348 | 0.0 | 0.0 | 0.00 | 0.00 | 0.00 | 96 | 1014.0 |
| 20260904085008 | 76 | 348 | 0.0 | 0.0 | 0.00 | 0.00 | 0.00 | 95 | 1014.1 |
| 20260904084524 | 77 | 348 | 0.0 | 0.0 | 0.00 | 0.00 | 0.00 | 96 | 1014.0 |
| 20260904084010 | 77 | 348 | 0.0 | 0.0 | 0.00 | 0.00 | 0.00 | 96 | 1013.9 |
| 20260904083513 | 77 | 13 | 0.0 | 0.0 | 0.00 | 0.00 | 0.00 | 96 | 1013.9 |
| 20260904083026 | 77 | 22 | 0.0 | 0.0 | 0.00 | 0.00 | 0.00 | 96 | 1013.9 |
| 20260904082515 | 77 | 5 | 0.0 | 0.0 | 0.00 | 0.00 | 0.00 | 96 | 1013.9 |
| 20260904082011 | 77 | 5 | 0.0 | 0.0 | 0.00 | 0.00 | 0.00 | 96 | 1013.8 |
| 20260904081530 | 77 | 5 | 0.0 | 0.0 | 0.00 | 0.00 | 0.00 | 96 | 1013.8 |
| 20260904081017 | 77 | 5 | 0.0 | 0.0 | 0.00 | 0.00 | 0.00 | 96 | 1013.7 |
| 20260904080516 | 77 | 5 | 0.0 | 0.0 | 0.00 | 0.00 | 0.00 | 95 | 1013.7 |
| 20260904080034 | 77 | 5 | 0.0 | 0.0 | 0.00 | 0.00 | 0.00 | 95 | 1013.6 |
| 20260904075518 | 77 | 5 | 0.0 | 0.0 | 0.00 | 0.00 | 0.00 | 95 | 1013.6 |
| 20260904075010 | 77 | 5 | 0.0 | 0.0 | 0.00 | 0.00 | 0.00 | 95 | 1013.7 |
| 20260904074521 | 77 | 5 | 0.0 | 0.0 | 0.00 | 0.00 | 0.00 | 95 | 1013.8 |
| 20260904074009 | 77 | 5 | 0.0 | 0.0 | 0.00 | 0.00 | 0.00 | 95 | 1013.9 |
| 20260904073511 | 77 | 5 | 0.0 | 0.0 | 0.00 | 0.00 | 0.00 | 95 | 1013.9 |
| 20260904073048 | 77 | 5 | 0.0 | 0.0 | 0.00 | 0.00 | 0.00 | 95 | 1013.9 |
| 20260904072511 | 77 | 5 | 0.0 | 0.0 | 0.00 | 0.00 | 0.00 | 95 | 1013.9 |
| 20260904072014 | 77 | 5 | 0.0 | 0.0 | 0.00 | 0.00 | 0.00 | 95 | 1014.0 |
| 20260904071535 | 77 | 5 | 0.0 | 0.0 | 0.00 | 0.00 | 0.00 | 95 | 1014.0 |
| 20260904071016 | 77 | 5 | 0.0 | 0.0 | 0.00 | 0.00 | 0.00 | 95 | 1014.0 |
| 20260904070514 | 77 | 5 | 0.0 | 0.0 | 0.00 | 0.00 | 0.00 | 95 | 1014.0 |
| 20260904070033 | 77 | 5 | 0.0 | 0.0 | 0.00 | 0.00 | 0.00 | 95 | 1014.0 |
| 20260904065519 | 77 | 9 | 0.0 | 0.0 | 0.00 | 0.00 | 0.00 | 95 | 1014.0 |
| 20260904065017 | 77 | 5 | 0.0 | 0.0 | 0.00 | 0.00 | 0.00 | 95 | 1014.1 |
| 20260904064532 | 77 | 5 | 0.0 | 0.0 | 0.00 | 0.00 | 0.00 | 95 | 1014.1 |
| 20260904064009 | 77 | 5 | 0.0 | 0.0 | 0.00 | 0.00 | 0.00 | 95 | 1014.2 |
| 20260904063509 | 77 | 5 | 0.0 | 0.9 | 0.00 | 0.00 | 0.00 | 95 | 1014.3 |
| 20260904063026 | 77 | 13 | 0.0 | 0.9 | 0.00 | 0.00 | 0.00 | 95 | 1014.3 |
| 20260904062513 | 77 | 331 | 0.0 | 0.0 | 0.00 | 0.00 | 0.00 | 95 | 1014.4 |
| 20260904062013 | 78 | 331 | 0.0 | 0.0 | 0.00 | 0.00 | 0.00 | 95 | 1014.4 |
| 20260904061531 | 78 | 331 | 0.0 | 0.0 | 0.00 | 0.00 | 0.00 | 95 | 1014.3 |
| 20260904061014 | 78 | 331 | 0.0 | 0.0 | 0.00 | 0.00 | 0.00 | 95 | 1014.4 |
| 20260904060514 | 78 | 331 | 0.0 | 0.0 | 0.00 | 0.00 | 0.00 | 95 | 1014.5 |
| 20260904060032 | 78 | 331 | 0.0 | 0.0 | 0.00 | 0.00 | 0.00 | 95 | 1014.5 |
| 20260904055521 | 78 | 331 | 0.0 | 0.0 | 0.00 | 0.00 | 0.00 | 95 | 1014.6 |
| 20260904055008 | 78 | 331 | 0.0 | 0.0 | 0.00 | 0.00 | 0.00 | 95 | 1014.7 |
| 20260904054517 | 78 | 331 | 0.0 | 0.0 | 0.00 | 0.00 | 0.00 | 95 | 1014.6 |
| 20260904054007 | 78 | 331 | 0.0 | 0.0 | 0.00 | 0.00 | 0.00 | 94 | 1014.6 |
| 20260904053510 | 78 | 331 | 0.0 | 0.0 | 0.00 | 0.00 | 0.00 | 94 | 1014.6 |
| 20260904053027 | 78 | 331 | 0.0 | 0.0 | 0.00 | 0.00 | 0.00 | 94 | 1014.6 |
| 20260904052512 | 78 | 311 | 0.0 | 0.0 | 0.00 | 0.00 | 0.00 | 94 | 1014.7 |
| 20260904052003 | 78 | 186 | 0.0 | 0.0 | 0.00 | 0.00 | 0.00 | 94 | 1014.8 |
| 20260904051506 | 78 | 186 | 0.0 | 0.0 | 0.00 | 0.00 | 0.00 | 94 | 1014.8 |
| 20260904051002 | 78 | 186 | 0.0 | 0.0 | 0.00 | 0.00 | 0.00 | 94 | 1014.7 |
| 20260904050502 | 78 | 186 | 0.0 | 0.0 | 0.00 | 0.00 | 0.00 | 94 | 1014.7 |
| 20260904050008 | 78 | 186 | 0.0 | 0.0 | 0.00 | 0.00 | 0.00 | 94 | 1014.8 |
| 20260904045504 | 78 | 186 | 0.0 | 0.0 | 0.00 | 0.00 | 0.00 | 93 | 1015.0 |
| 20260904045004 | 78 | 186 | 0.0 | 0.0 | 0.00 | 0.00 | 0.00 | 93 | 1014.9 |
| 20260904044514 | 78 | 186 | 0.0 | 0.0 | 0.00 | 0.00 | 0.00 | 93 | 1014.9 |
| 20260904044008 | 78 | 186 | 0.0 | 0.0 | 0.00 | 0.00 | 0.00 | 93 | 1014.9 |
| 20260904043506 | 78 | 186 | 0.0 | 0.0 | 0.00 | 0.00 | 0.00 | 93 | 1014.9 |
| 20260904043021 | 78 | 186 | 0.0 | 0.0 | 0.00 | 0.00 | 0.00 | 93 | 1015.0 |
| 20260904042511 | 79 | 186 | 0.0 | 0.0 | 0.00 | 0.00 | 0.00 | 92 | 1014.9 |
| 20260904042014 | 79 | 186 | 0.0 | 0.0 | 0.00 | 0.00 | 0.00 | 92 | 1014.9 |
| 20260904041527 | 79 | 186 | 0.0 | 0.0 | 0.00 | 0.00 | 0.00 | 92 | 1014.9 |
| 20260904041003 | 79 | 186 | 0.0 | 0.0 | 0.00 | 0.00 | 0.00 | 92 | 1014.9 |
| 20260904040502 | 79 | 186 | 0.0 | 0.0 | 0.00 | 0.00 | 0.00 | 92 | 1015.0 |
| 20260904040007 | 79 | 186 | 0.0 | 0.0 | 0.00 | 0.00 | 0.00 | 92 | 1015.1 |
| 20260904035504 | 79 | 186 | 0.0 | 0.0 | 0.00 | 0.00 | 0.00 | 91 | 1015.0 |
| 20260904035004 | 79 | 186 | 0.0 | 0.0 | 0.00 | 0.00 | 0.00 | 91 | 1015.0 |
| 20260904034516 | 79 | 186 | 0.0 | 0.0 | 0.00 | 0.00 | 0.00 | 92 | 1015.0 |
| 20260904034008 | 79 | 186 | 0.0 | 0.0 | 0.00 | 0.00 | 0.00 | 92 | 1015.1 |
| 20260904033508 | 79 | 186 | 0.0 | 0.0 | 0.00 | 0.00 | 0.00 | 92 | 1015.0 |
| 20260904033030 | 79 | 186 | 0.0 | 0.0 | 0.00 | 0.00 | 0.00 | 92 | 1015.1 |
| 20260904032509 | 79 | 186 | 0.0 | 0.0 | 0.00 | 0.00 | 0.00 | 92 | 1015.1 |
| 20260904032011 | 79 | 186 | 0.0 | 0.0 | 0.00 | 0.00 | 0.00 | 92 | 1015.3 |
| 20260904031525 | 79 | 186 | 0.0 | 0.0 | 0.00 | 0.00 | 0.00 | 92 | 1015.3 |
| 20260904031013 | 79 | 186 | 0.0 | 0.0 | 0.00 | 0.00 | 0.00 | 92 | 1015.3 |
| 20260904030518 | 79 | 186 | 0.0 | 1.7 | 0.00 | 0.00 | 0.00 | 92 | 1015.3 |
| 20260904030003 | 79 | 186 | 0.0 | 1.7 | 0.00 | 0.00 | 0.00 | 92 | 1015.3 |
| 20260904025503 | 79 | 166 | 0.0 | 0.0 | 0.00 | 0.00 | 0.00 | 92 | 1015.2 |
| 20260904025003 | 79 | 166 | 0.0 | 0.0 | 0.00 | 0.00 | 0.00 | 91 | 1015.1 |
| 20260904024508 | 79 | 128 | 0.0 | 0.0 | 0.00 | 0.00 | 0.00 | 91 | 1015.0 |
| 20260904024004 | 79 | 128 | 0.0 | 0.0 | 0.00 | 0.00 | 0.00 | 91 | 1014.9 |
| 20260904023507 | 79 | 128 | 0.0 | 0.0 | 0.00 | 0.00 | 0.00 | 92 | 1014.9 |
| 20260904023016 | 79 | 128 | 0.0 | 2.6 | 0.00 | 0.00 | 0.00 | 91 | 1014.8 |
| 20260904022509 | 79 | 169 | 0.0 | 2.6 | 0.00 | 0.00 | 0.00 | 91 | 1014.7 |
| 20260904022009 | 79 | 157 | 0.0 | 0.0 | 0.00 | 0.00 | 0.00 | 91 | 1014.7 |
| 20260904021527 | 80 | 163 | 0.0 | 0.0 | 0.00 | 0.00 | 0.00 | 91 | 1014.7 |
| 20260904021011 | 80 | 134 | 0.0 | 0.0 | 0.00 | 0.00 | 0.00 | 91 | 1014.7 |
| 20260904020512 | 80 | 134 | 0.0 | 0.0 | 0.00 | 0.00 | 0.00 | 91 | 1014.7 |
| 20260904020030 | 80 | 134 | 0.0 | 0.0 | 0.00 | 0.00 | 0.00 | 91 | 1014.7 |
| 20260904015513 | 80 | 134 | 0.0 | 0.0 | 0.00 | 0.00 | 0.00 | 91 | 1014.7 |
| 20260904015006 | 80 | 134 | 0.0 | 0.0 | 0.00 | 0.00 | 0.00 | 91 | 1014.6 |
| 20260904014508 | 80 | 134 | 0.0 | 0.0 | 0.00 | 0.00 | 0.00 | 90 | 1014.6 |
| 20260904014002 | 80 | 134 | 0.0 | 0.0 | 0.00 | 0.00 | 0.00 | 90 | 1014.5 |
| 20260904013503 | 80 | 134 | 0.0 | 0.0 | 0.00 | 0.00 | 0.00 | 90 | 1014.4 |
| 20260904013018 | 80 | 134 | 0.0 | 0.0 | 0.00 | 0.00 | 0.00 | 90 | 1014.4 |
| 20260904012507 | 80 | 134 | 0.0 | 0.0 | 0.00 | 0.00 | 0.00 | 90 | 1014.3 |
| 20260904012008 | 80 | 134 | 0.0 | 0.0 | 0.00 | 0.00 | 0.00 | 90 | 1014.2 |
| 20260904011523 | 80 | 134 | 0.0 | 0.0 | 0.00 | 0.00 | 0.00 | 89 | 1014.2 |
| 20260904011010 | 80 | 134 | 0.0 | 0.0 | 0.00 | 0.00 | 0.00 | 89 | 1014.1 |
| 20260904010512 | 81 | 134 | 0.0 | 0.0 | 0.00 | 0.00 | 0.00 | 89 | 1014.1 |
| 20260904010029 | 81 | 134 | 0.0 | 0.0 | 0.00 | 0.00 | 0.00 | 89 | 1014.1 |
| 20260904005519 | 81 | 134 | 0.0 | 0.0 | 0.00 | 0.00 | 0.00 | 89 | 1014.1 |
| 20260904005015 | 81 | 134 | 0.0 | 0.0 | 0.00 | 0.00 | 0.00 | 88 | 1014.1 |
| 20260904004531 | 81 | 134 | 0.0 | 0.0 | 0.00 | 0.00 | 0.00 | 87 | 1014.0 |
| 20260904004003 | 81 | 134 | 0.0 | 0.0 | 0.00 | 0.00 | 0.00 | 87 | 1014.0 |
| 20260904003503 | 81 | 117 | 0.0 | 0.0 | 0.00 | 0.00 | 0.00 | 87 | 1013.9 |
| 20260904003012 | 82 | 117 | 0.0 | 0.0 | 0.00 | 0.00 | 0.00 | 86 | 1013.8 |
| 20260904002507 | 82 | 117 | 0.0 | 0.0 | 0.00 | 0.00 | 0.00 | 86 | 1013.7 |
| 20260904002008 | 82 | 117 | 0.0 | 0.0 | 0.00 | 0.00 | 0.00 | 85 | 1013.7 |
| 20260904001521 | 82 | 117 | 0.0 | 0.0 | 0.00 | 0.00 | 0.00 | 85 | 1013.6 |
| 20260904001008 | 82 | 123 | 0.0 | 0.0 | 0.00 | 0.00 | 0.00 | 84 | 1013.7 |
| 20260904000515 | 83 | 134 | 0.0 | 0.0 | 0.00 | 0.00 | 0.00 | 84 | 1013.6 |
| 20260904000027 | 83 | 134 | 0.0 | 0.0 | 0.00 | 0.00 | 0.00 | 83 | 1013.4 |
| 20260903235514 | 83 | 134 | 0.0 | 0.0 | 0.00 | 0.00 | 0.00 | 83 | 1013.3 |
| 20260903235012 | 83 | 134 | 0.0 | 0.0 | 0.00 | 0.00 | 0.00 | 83 | 1013.2 |
| 20260903234527 | 83 | 134 | 0.0 | 3.5 | 0.00 | 0.00 | 0.00 | 82 | 1013.0 |
| 20260903234016 | 83 | 122 | 0.0 | 3.5 | 0.00 | 0.00 | 0.00 | 82 | 1013.1 |
| 20260903233507 | 83 | 138 | 1.7 | 3.5 | 0.00 | 0.00 | 0.00 | 81 | 1013.1 |
| 20260903233007 | 83 | 110 | 0.9 | 4.3 | 0.00 | 0.00 | 0.00 | 81 | 1013.2 |
| 20260903232506 | 84 | 114 | 2.6 | 5.2 | 0.00 | 0.00 | 0.00 | 80 | 1013.3 |
| 20260903232007 | 84 | 111 | 2.6 | 6.1 | 0.00 | 0.00 | 0.00 | 79 | 1013.2 |
| 20260903231517 | 84 | 103 | 2.6 | 6.1 | 0.00 | 0.00 | 0.00 | 79 | 1013.2 |
| 20260903231010 | 84 | 123 | 3.5 | 6.1 | 0.00 | 0.00 | 0.00 | 78 | 1013.2 |
| 20260903230509 | 85 | 113 | 2.6 | 6.1 | 0.00 | 0.00 | 0.00 | 76 | 1013.1 |
| 20260903230042 | 85 | 105 | 4.3 | 7.8 | 0.00 | 0.00 | 0.00 | 75 | 1013.0 |
| 20260903225518 | 86 | 103 | 3.5 | 7.8 | 0.00 | 0.00 | 0.00 | 73 | 1013.1 |
| 20260903225013 | 87 | 126 | 4.3 | 7.0 | 0.00 | 0.00 | 0.00 | 72 | 1013.1 |
| 20260903224530 | 87 | 119 | 0.0 | 2.6 | 0.00 | 0.00 | 0.00 | 70 | 1013.0 |
| 20260903224015 | 88 | 123 | 0.0 | 3.5 | 0.00 | 0.00 | 0.00 | 70 | 1013.2 |
| 20260903223517 | 88 | 109 | 0.9 | 5.2 | 0.00 | 0.00 | 0.00 | 69 | 1013.2 |
| 20260903223032 | 89 | 101 | 2.6 | 5.2 | 0.00 | 0.00 | 0.00 | 67 | 1013.2 |
| 20260903222504 | 89 | 89 | 1.7 | 7.0 | 0.00 | 0.00 | 0.00 | 67 | 1013.2 |